Location: Newark
(28.9833°N, 10.0667°W)
Time: 17:33:23
(UTC+00:00)

Hubble Space Telescope - Pass Details

Date: 12 December 2019
Orbit: 536 x 540 km, 28.5° (Epoch: 24 January)

Event Time Altitude Azimuth Distance (km) Brightness Sun altitude
Exits shadow 05:32:09 - 194° (SSW) 1,958 3.6 -23.8°
Reaches altitude 10° 05:32:55 10° 186° (S) 1,780 3.5 -23.6°
Maximum altitude 05:35:07 14° 153° (SSE) 1,538 3.6 -23.2°
Drops below altitude 10° 05:37:19 10° 121° (ESE) 1,783 4.4 -22.7°
Sets 05:40:29 0° 96° (E) 2,676 5.8 -22.0°
